| time (UTC) | temp F | wind direction | speed MPH | gust MPH | rain 1hr in | rain 24hr in | rain mn in | humidity % | barometer mb |
| 20260902232655 | 93 | 243 | 10.0 | 17.0 | 0.00 | 0.00 | 0.00 | 32 | 1011.7 |
| 20260902232251 | 93 | 218 | 9.0 | 17.0 | 0.00 | 0.00 | 0.00 | 31 | 1011.7 |
| 20260902232205 | 93 | 222 | 10.0 | 17.0 | 0.00 | 0.00 | 0.00 | 31 | 1011.7 |
| 20260902231654 | 93 | 213 | 10.0 | 17.0 | 0.00 | 0.00 | 0.00 | 31 | 1011.8 |
| 20260902231252 | 93 | 222 | 9.0 | 18.0 | 0.00 | 0.00 | 0.00 | 31 | 1011.7 |
| 20260902231224 | 94 | 208 | 9.0 | 18.0 | 0.00 | 0.00 | 0.00 | 31 | 1011.7 |
| 20260902230653 | 94 | 212 | 10.0 | 19.0 | 0.00 | 0.00 | 0.00 | 30 | 1011.7 |
| 20260902230250 | 94 | 251 | 11.0 | 19.0 | 0.00 | 0.00 | 0.00 | 30 | 1011.7 |
| 20260902230203 | 94 | 239 | 11.0 | 23.0 | 0.00 | 0.00 | 0.00 | 30 | 1011.8 |
| 20260902225652 | 95 | 249 | 10.0 | 23.0 | 0.00 | 0.00 | 0.00 | 30 | 1011.8 |
| 20260902225249 | 95 | 222 | 15.0 | 22.0 | 0.00 | 0.00 | 0.00 | 30 | 1011.8 |
| 20260902225222 | 95 | 235 | 17.0 | 22.0 | 0.00 | 0.00 | 0.00 | 29 | 1011.8 |
| 20260902224651 | 95 | 222 | 13.0 | 20.0 | 0.00 | 0.00 | 0.00 | 30 | 1011.8 |
| 20260902224249 | 95 | 229 | 12.0 | 20.0 | 0.00 | 0.00 | 0.00 | 32 | 1011.8 |
| 20260902224200 | 95 | 225 | 11.0 | 19.0 | 0.00 | 0.00 | 0.00 | 33 | 1011.7 |
| 20260902223654 | 95 | 244 | 13.0 | 21.0 | 0.00 | 0.00 | 0.00 | 32 | 1011.8 |
| 20260902223251 | 95 | 218 | 13.0 | 23.0 | 0.00 | 0.00 | 0.00 | 31 | 1011.7 |
| 20260902223204 | 95 | 236 | 12.0 | 23.0 | 0.00 | 0.00 | 0.00 | 30 | 1011.8 |
| 20260902222653 | 96 | 235 | 14.0 | 23.0 | 0.00 | 0.00 | 0.00 | 30 | 1011.8 |
| 20260902222250 | 96 | 250 | 13.0 | 20.0 | 0.00 | 0.00 | 0.00 | 31 | 1011.8 |
| 20260902222203 | 96 | 208 | 13.0 | 20.0 | 0.00 | 0.00 | 0.00 | 31 | 1011.8 |
| 20260902221653 | 96 | 205 | 13.0 | 19.0 | 0.00 | 0.00 | 0.00 | 30 | 1011.8 |
| 20260902221248 | 96 | 205 | 12.0 | 18.0 | 0.00 | 0.00 | 0.00 | 31 | 1011.8 |
| 20260902221201 | 96 | 235 | 12.0 | 19.0 | 0.00 | 0.00 | 0.00 | 31 | 1011.8 |
| 20260902220651 | 96 | 236 | 13.0 | 19.0 | 0.00 | 0.00 | 0.00 | 31 | 1011.8 |
| 20260902220248 | 96 | 273 | 13.0 | 18.0 | 0.00 | 0.00 | 0.00 | 30 | 1011.8 |
| 20260902220159 | 96 | 247 | 13.0 | 18.0 | 0.00 | 0.00 | 0.00 | 30 | 1011.8 |
| 20260902215649 | 96 | 251 | 11.0 | 18.0 | 0.00 | 0.00 | 0.00 | 30 | 1011.9 |
| 20260902215245 | 96 | 241 | 12.0 | 18.0 | 0.00 | 0.00 | 0.00 | 30 | 1011.9 |
| 20260902215202 | 96 | 260 | 12.0 | 18.0 | 0.00 | 0.00 | 0.00 | 30 | 1012.0 |
| 20260902214652 | 96 | 227 | 12.0 | 19.0 | 0.00 | 0.00 | 0.00 | 32 | 1012.0 |
| 20260902214249 | 96 | 238 | 12.0 | 19.0 | 0.00 | 0.00 | 0.00 | 32 | 1012.0 |
| 20260902214201 | 96 | 240 | 12.0 | 19.0 | 0.00 | 0.00 | 0.00 | 32 | 1012.0 |
| 20260902213652 | 96 | 238 | 12.0 | 20.0 | 0.00 | 0.00 | 0.00 | 31 | 1012.1 |
| 20260902213248 | 96 | 232 | 13.0 | 23.0 | 0.00 | 0.00 | 0.00 | 31 | 1012.1 |
| 20260902213201 | 96 | 240 | 13.0 | 23.0 | 0.00 | 0.00 | 0.00 | 31 | 1012.1 |
| 20260902212650 | 96 | 229 | 15.0 | 23.0 | 0.00 | 0.00 | 0.00 | 31 | 1012.1 |
| 20260902212247 | 96 | 242 | 12.0 | 19.0 | 0.00 | 0.00 | 0.00 | 32 | 1012.2 |
| 20260902212219 | 96 | 241 | 12.0 | 18.0 | 0.00 | 0.00 | 0.00 | 31 | 1012.3 |
| 20260902211648 | 96 | 218 | 12.0 | 22.0 | 0.00 | 0.00 | 0.00 | 33 | 1012.3 |
| 20260902211304 | 96 | 250 | 16.0 | 22.0 | 0.00 | 0.00 | 0.00 | 31 | 1012.4 |
| 20260902211157 | 96 | 231 | 12.0 | 20.0 | 0.00 | 0.00 | 0.00 | 31 | 1012.4 |
| 20260902210707 | 96 | 218 | 13.0 | 21.0 | 0.00 | 0.00 | 0.00 | 34 | 1012.4 |
| 20260902210303 | 96 | 227 | 11.0 | 21.0 | 0.00 | 0.00 | 0.00 | 33 | 1012.4 |
| 20260902210200 | 96 | 186 | 13.0 | 21.0 | 0.00 | 0.00 | 0.00 | 33 | 1012.3 |
| 20260902205707 | 96 | 232 | 12.0 | 19.0 | 0.00 | 0.00 | 0.00 | 35 | 1012.5 |
| 20260902205259 | 96 | 250 | 14.0 | 19.0 | 0.00 | 0.00 | 0.00 | 34 | 1012.5 |
| 20260902205216 | 96 | 244 | 15.0 | 19.0 | 0.00 | 0.00 | 0.00 | 34 | 1012.6 |
| 20260902204724 | 95 | 219 | 10.0 | 19.0 | 0.00 | 0.00 | 0.00 | 33 | 1012.6 |
| 20260902204259 | 96 | 263 | 10.0 | 19.0 | 0.00 | 0.00 | 0.00 | 35 | 1012.6 |
| 20260902204151 | 96 | 194 | 9.0 | 19.0 | 0.00 | 0.00 | 0.00 | 35 | 1012.6 |
| 20260902203700 | 96 | 236 | 11.0 | 21.0 | 0.00 | 0.00 | 0.00 | 35 | 1012.7 |
| 20260902203256 | 95 | 231 | 13.0 | 21.0 | 0.00 | 0.00 | 0.00 | 37 | 1012.8 |
| 20260902203148 | 95 | 212 | 10.0 | 17.0 | 0.00 | 0.00 | 0.00 | 37 | 1012.8 |
| 20260902202657 | 95 | 217 | 11.0 | 21.0 | 0.00 | 0.00 | 0.00 | 38 | 1012.8 |
| 20260902202311 | 95 | 238 | 12.0 | 21.0 | 0.00 | 0.00 | 0.00 | 35 | 1012.9 |
| 20260902202200 | 95 | 200 | 13.0 | 21.0 | 0.00 | 0.00 | 0.00 | 35 | 1012.9 |
| 20260902201649 | 95 | 232 | 13.0 | 20.0 | 0.00 | 0.00 | 0.00 | 36 | 1012.9 |
| 20260902201304 | 95 | 201 | 13.0 | 19.0 | 0.00 | 0.00 | 0.00 | 37 | 1013.0 |
| 20260902201214 | 95 | 200 | 15.0 | 19.0 | 0.00 | 0.00 | 0.00 | 37 | 1013.0 |
| 20260902200702 | 95 | 234 | 11.0 | 18.0 | 0.00 | 0.00 | 0.00 | 41 | 1013.0 |
| 20260902200258 | 95 | 246 | 12.0 | 18.0 | 0.00 | 0.00 | 0.00 | 38 | 1013.1 |
| 20260902200150 | 95 | 215 | 12.0 | 18.0 | 0.00 | 0.00 | 0.00 | 37 | 1013.1 |
| 20260902195702 | 95 | 251 | 12.0 | 19.0 | 0.00 | 0.00 | 0.00 | 39 | 1013.1 |
| 20260902195255 | 95 | 242 | 10.0 | 16.0 | 0.00 | 0.00 | 0.00 | 39 | 1013.1 |
| 20260902195152 | 95 | 192 | 10.0 | 16.0 | 0.00 | 0.00 | 0.00 | 37 | 1013.2 |
| 20260902194720 | 94 | 182 | 10.0 | 15.0 | 0.00 | 0.00 | 0.00 | 40 | 1013.2 |
| 20260902194253 | 94 | 242 | 10.0 | 20.0 | 0.00 | 0.00 | 0.00 | 46 | 1013.3 |
| 20260902194200 | 94 | 246 | 10.0 | 20.0 | 0.00 | 0.00 | 0.00 | 42 | 1013.3 |
| 20260902193648 | 94 | 242 | 9.0 | 19.0 | 0.00 | 0.00 | 0.00 | 41 | 1013.3 |
| 20260902193321 | 94 | 232 | 13.0 | 20.0 | 0.00 | 0.00 | 0.00 | 43 | 1013.3 |
| 20260902193154 | 94 | 211 | 12.0 | 20.0 | 0.00 | 0.00 | 0.00 | 42 | 1013.4 |
| 20260902192702 | 93 | 223 | 14.0 | 20.0 | 0.00 | 0.00 | 0.00 | 42 | 1013.4 |
| 20260902192255 | 93 | 191 | 10.0 | 16.0 | 0.00 | 0.00 | 0.00 | 43 | 1013.4 |
| 20260902192147 | 92 | 192 | 12.0 | 18.0 | 0.00 | 0.00 | 0.00 | 43 | 1013.4 |
| 20260902191656 | 92 | 232 | 10.0 | 18.0 | 0.00 | 0.00 | 0.00 | 44 | 1013.6 |
| 20260902191252 | 92 | 219 | 11.0 | 18.0 | 0.00 | 0.00 | 0.00 | 43 | 1013.7 |
| 20260902191204 | 92 | 227 | 9.0 | 18.0 | 0.00 | 0.00 | 0.00 | 46 | 1013.7 |
| 20260902190714 | 92 | 257 | 11.0 | 16.0 | 0.00 | 0.00 | 0.00 | 47 | 1013.7 |
| 20260902190330 | 92 | 192 | 10.0 | 17.0 | 0.00 | 0.00 | 0.00 | 46 | 1013.8 |
| 20260902190159 | 92 | 197 | 10.0 | 17.0 | 0.00 | 0.00 | 0.00 | 46 | 1013.8 |
| 20260902185648 | 91 | 258 | 12.0 | 20.0 | 0.00 | 0.00 | 0.00 | 48 | 1013.8 |
| 20260902185245 | 91 | 270 | 10.0 | 20.0 | 0.00 | 0.00 | 0.00 | 48 | 1013.8 |
| 20260902185218 | 91 | 221 | 9.0 | 20.0 | 0.00 | 0.00 | 0.00 | 48 | 1013.8 |
| 20260902184648 | 91 | 238 | 11.0 | 18.0 | 0.00 | 0.00 | 0.00 | 49 | 1013.9 |
| 20260902184259 | 91 | 204 | 10.0 | 16.0 | 0.00 | 0.00 | 0.00 | 50 | 1014.0 |
| 20260902184156 | 91 | 209 | 7.0 | 16.0 | 0.00 | 0.00 | 0.00 | 50 | 1014.1 |
| 20260902183702 | 90 | 247 | 11.0 | 16.0 | 0.00 | 0.00 | 0.00 | 50 | 1014.1 |
| 20260902183257 | 90 | 225 | 10.0 | 17.0 | 0.00 | 0.00 | 0.00 | 49 | 1014.2 |
| 20260902183210 | 90 | 232 | 10.0 | 17.0 | 0.00 | 0.00 | 0.00 | 49 | 1014.1 |
| 20260902182718 | 90 | 241 | 10.0 | 17.0 | 0.00 | 0.00 | 0.00 | 49 | 1014.3 |
| 20260902182253 | 90 | 196 | 10.0 | 16.0 | 0.00 | 0.00 | 0.00 | 49 | 1014.3 |
| 20260902182205 | 90 | 182 | 10.0 | 18.0 | 0.00 | 0.00 | 0.00 | 48 | 1014.3 |
| 20260902181654 | 90 | 211 | 10.0 | 20.0 | 0.00 | 0.00 | 0.00 | 50 | 1014.3 |
| 20260902181249 | 90 | 224 | 13.0 | 20.0 | 0.00 | 0.00 | 0.00 | 50 | 1014.4 |
| 20260902181202 | 89 | 217 | 14.0 | 20.0 | 0.00 | 0.00 | 0.00 | 50 | 1014.3 |
| 20260902180651 | 89 | 237 | 10.0 | 17.0 | 0.00 | 0.00 | 0.00 | 49 | 1014.4 |
| 20260902180259 | 89 | 189 | 13.0 | 20.0 | 0.00 | 0.00 | 0.00 | 49 | 1014.4 |
| 20260902180152 | 89 | 196 | 12.0 | 20.0 | 0.00 | 0.00 | 0.00 | 49 | 1014.4 |
| 20260902175702 | 88 | 233 | 10.0 | 20.0 | 0.00 | 0.00 | 0.00 | 50 | 1014.5 |
| 20260902175259 | 88 | 192 | 9.0 | 18.0 | 0.00 | 0.00 | 0.00 | 52 | 1014.5 |
| 20260902175148 | 88 | 234 | 9.0 | 18.0 | 0.00 | 0.00 | 0.00 | 52 | 1014.5 |
| 20260902174702 | 88 | 225 | 12.0 | 18.0 | 0.00 | 0.00 | 0.00 | 54 | 1014.5 |
| 20260902174314 | 87 | 244 | 12.0 | 18.0 | 0.00 | 0.00 | 0.00 | 54 | 1014.7 |
| 20260902174147 | 87 | 249 | 12.0 | 18.0 | 0.00 | 0.00 | 0.00 | 54 | 1014.6 |
| 20260902173717 | 87 | 192 | 13.0 | 16.0 | 0.00 | 0.00 | 0.00 | 52 | 1014.6 |
| 20260902173252 | 87 | 195 | 12.0 | 17.0 | 0.00 | 0.00 | 0.00 | 52 | 1014.6 |
| 20260902173203 | 87 | 226 | 12.0 | 17.0 | 0.00 | 0.00 | 0.00 | 52 | 1014.6 |
| 20260902172713 | 87 | 252 | 13.0 | 17.0 | 0.00 | 0.00 | 0.00 | 53 | 1014.6 |
| 20260902172249 | 87 | 219 | 9.0 | 20.0 | 0.00 | 0.00 | 0.00 | 54 | 1014.7 |
| 20260902172202 | 87 | 237 | 8.0 | 20.0 | 0.00 | 0.00 | 0.00 | 55 | 1014.7 |
| 20260902171652 | 86 | 233 | 13.0 | 20.0 | 0.00 | 0.00 | 0.00 | 53 | 1014.8 |
| 20260902171248 | 86 | 258 | 12.0 | 18.0 | 0.00 | 0.00 | 0.00 | 53 | 1014.7 |
| 20260902171202 | 86 | 234 | 11.0 | 18.0 | 0.00 | 0.00 | 0.00 | 53 | 1014.7 |
| 20260902170649 | 85 | 207 | 10.0 | 16.0 | 0.00 | 0.00 | 0.00 | 57 | 1014.8 |
| 20260902170246 | 85 | 226 | 10.0 | 19.0 | 0.00 | 0.00 | 0.00 | 55 | 1014.8 |
| 20260902170200 | 85 | 252 | 10.0 | 19.0 | 0.00 | 0.00 | 0.00 | 55 | 1014.9 |
| 20260902165711 | 85 | 209 | 11.0 | 19.0 | 0.00 | 0.00 | 0.00 | 57 | 1014.9 |
| 20260902165309 | 84 | 222 | 10.0 | 16.0 | 0.00 | 0.00 | 0.00 | 57 | 1014.9 |
| 20260902165157 | 84 | 184 | 9.0 | 15.0 | 0.00 | 0.00 | 0.00 | 56 | 1015.0 |
| 20260902164651 | 84 | 238 | 9.0 | 14.0 | 0.00 | 0.00 | 0.00 | 58 | 1015.0 |
| 20260902164248 | 84 | 234 | 9.0 | 14.0 | 0.00 | 0.00 | 0.00 | 58 | 1015.0 |
| 20260902164202 | 84 | 207 | 9.0 | 14.0 | 0.00 | 0.00 | 0.00 | 58 | 1015.0 |
| 20260902163651 | 83 | 232 | 8.0 | 11.0 | 0.00 | 0.00 | 0.00 | 59 | 1015.0 |
| 20260902163308 | 83 | 242 | 8.0 | 14.0 | 0.00 | 0.00 | 0.00 | 61 | 1015.1 |
| 20260902163159 | 82 | 208 | 7.0 | 14.0 | 0.00 | 0.00 | 0.00 | 61 | 1015.1 |
| 20260902162647 | 82 | 199 | 9.0 | 14.0 | 0.00 | 0.00 | 0.00 | 62 | 1015.1 |
| 20260902162325 | 82 | 138 | 6.0 | 12.0 | 0.00 | 0.00 | 0.00 | 60 | 1015.1 |
| 20260902162217 | 82 | 184 | 7.0 | 12.0 | 0.00 | 0.00 | 0.00 | 60 | 1015.1 |
| 20260902161705 | 82 | 221 | 8.0 | 13.0 | 0.00 | 0.00 | 0.00 | 61 | 1015.0 |
| 20260902161302 | 82 | 223 | 8.0 | 13.0 | 0.00 | 0.00 | 0.00 | 60 | 1015.1 |
| 20260902161155 | 82 | 242 | 9.0 | 13.0 | 0.00 | 0.00 | 0.00 | 60 | 1015.0 |
| 20260902160705 | 81 | 200 | 9.0 | 12.0 | 0.00 | 0.00 | 0.00 | 61 | 1015.0 |
| 20260902160301 | 81 | 236 | 7.0 | 13.0 | 0.00 | 0.00 | 0.00 | 62 | 1014.9 |
| 20260902160154 | 81 | 234 | 8.0 | 11.0 | 0.00 | 0.00 | 0.00 | 60 | 1015.0 |
| 20260902155649 | 81 | 215 | 9.0 | 13.0 | 0.00 | 0.00 | 0.00 | 62 | 1015.0 |
| 20260902155306 | 80 | 245 | 10.0 | 13.0 | 0.00 | 0.00 | 0.00 | 60 | 1015.0 |
| 20260902155218 | 80 | 214 | 9.0 | 14.0 | 0.00 | 0.00 | 0.00 | 60 | 1015.0 |
| 20260902154647 | 80 | 229 | 7.0 | 10.0 | 0.00 | 0.00 | 0.00 | 63 | 1015.0 |
| 20260902154303 | 80 | 211 | 8.0 | 12.0 | 0.00 | 0.00 | 0.00 | 62 | 1015.0 |
| 20260902154157 | 80 | 217 | 8.0 | 14.0 | 0.00 | 0.00 | 0.00 | 64 | 1014.9 |
| 20260902153647 | 80 | 197 | 8.0 | 10.0 | 0.00 | 0.00 | 0.00 | 63 | 1014.9 |
| 20260902153324 | 79 | 213 | 5.0 | 9.0 | 0.00 | 0.00 | 0.00 | 63 | 1014.8 |
| 20260902153155 | 79 | 213 | 4.0 | 9.0 | 0.00 | 0.00 | 0.00 | 63 | 1014.8 |
| 20260902152725 | 79 | 205 | 5.0 | 9.0 | 0.00 | 0.00 | 0.00 | 67 | 1014.8 |
| 20260902152319 | 79 | 236 | 5.0 | 8.0 | 0.00 | 0.00 | 0.00 | 67 | 1014.9 |
| 20260902152211 | 79 | 200 | 5.0 | 12.0 | 0.00 | 0.00 | 0.00 | 64 | 1014.9 |
| 20260902151700 | 79 | 199 | 5.0 | 12.0 | 0.00 | 0.00 | 0.00 | 67 | 1014.9 |
| 20260902151257 | 79 | 225 | 7.0 | 12.0 | 0.00 | 0.00 | 0.00 | 65 | 1015.0 |
| 20260902151150 | 79 | 224 | 7.0 | 11.0 | 0.00 | 0.00 | 0.00 | 67 | 1014.8 |
| 20260902150700 | 78 | 237 | 7.0 | 11.0 | 0.00 | 0.00 | 0.00 | 68 | 1014.9 |
| 20260902150256 | 78 | 240 | 7.0 | 11.0 | 0.00 | 0.00 | 0.00 | 68 | 1014.9 |
| 20260902150149 | 77 | 225 | 8.0 | 13.0 | 0.00 | 0.00 | 0.00 | 69 | 1014.9 |
| 20260902145658 | 77 | 247 | 7.0 | 16.0 | 0.00 | 0.00 | 0.00 | 70 | 1014.9 |
| 20260902145255 | 76 | 226 | 9.0 | 16.0 | 0.00 | 0.00 | 0.00 | 71 | 1014.8 |
| 20260902145151 | 76 | 248 | 8.0 | 16.0 | 0.00 | 0.00 | 0.00 | 71 | 1014.8 |
| 20260902144701 | 75 | 230 | 6.0 | 12.0 | 0.00 | 0.00 | 0.00 | 72 | 1014.8 |
| 20260902144258 | 75 | 252 | 8.0 | 12.0 | 0.00 | 0.00 | 0.00 | 73 | 1014.8 |
| 20260902144151 | 75 | 221 | 9.0 | 12.0 | 0.00 | 0.00 | 0.00 | 72 | 1014.8 |
| 20260902143700 | 74 | 241 | 8.0 | 11.0 | 0.00 | 0.00 | 0.00 | 73 | 1014.8 |
| 20260902143256 | 74 | 219 | 8.0 | 11.0 | 0.00 | 0.00 | 0.00 | 74 | 1014.8 |
| 20260902143149 | 74 | 215 | 8.0 | 11.0 | 0.00 | 0.00 | 0.00 | 74 | 1014.8 |
| 20260902142658 | 74 | 209 | 6.0 | 15.0 | 0.00 | 0.00 | 0.00 | 75 | 1014.7 |
| 20260902142255 | 73 | 201 | 7.0 | 15.0 | 0.00 | 0.00 | 0.00 | 75 | 1014.7 |
| 20260902142207 | 73 | 230 | 7.0 | 15.0 | 0.00 | 0.00 | 0.00 | 75 | 1014.7 |
| 20260902141654 | 72 | 234 | 8.0 | 12.0 | 0.00 | 0.00 | 0.00 | 76 | 1014.7 |
| 20260902141252 | 72 | 234 | 7.0 | 12.0 | 0.00 | 0.00 | 0.00 | 77 | 1014.7 |
| 20260902141203 | 72 | 227 | 7.0 | 12.0 | 0.00 | 0.00 | 0.00 | 78 | 1014.7 |
| 20260902140654 | 71 | 236 | 7.0 | 12.0 | 0.00 | 0.00 | 0.00 | 79 | 1014.8 |
| 20260902140251 | 70 | 205 | 6.0 | 10.0 | 0.00 | 0.00 | 0.00 | 79 | 1014.9 |
| 20260902140147 | 70 | 238 | 6.0 | 10.0 | 0.00 | 0.00 | 0.00 | 80 | 1014.9 |
| 20260902135657 | 70 | 254 | 5.0 | 10.0 | 0.00 | 0.00 | 0.00 | 82 | 1014.9 |
| 20260902135253 | 69 | 200 | 6.0 | 10.0 | 0.00 | 0.00 | 0.00 | 82 | 1015.0 |
| 20260902135205 | 69 | 209 | 6.0 | 10.0 | 0.00 | 0.00 | 0.00 | 82 | 1015.0 |
| 20260902134653 | 68 | 209 | 6.0 | 9.0 | 0.00 | 0.00 | 0.00 | 83 | 1014.9 |
| 20260902134249 | 68 | 232 | 6.0 | 10.0 | 0.00 | 0.00 | 0.00 | 83 | 1015.0 |
| 20260902134202 | 68 | 247 | 5.0 | 10.0 | 0.00 | 0.00 | 0.00 | 83 | 1015.0 |
| 20260902133652 | 67 | 221 | 5.0 | 9.0 | 0.00 | 0.00 | 0.00 | 83 | 1015.0 |
| 20260902133305 | 67 | 213 | 4.0 | 8.0 | 0.00 | 0.00 | 0.00 | 84 | 1015.0 |
| 20260902133156 | 67 | 207 | 5.0 | 8.0 | 0.00 | 0.00 | 0.00 | 84 | 1015.0 |
| 20260902132704 | 67 | 227 | 5.0 | 9.0 | 0.00 | 0.00 | 0.00 | 84 | 1014.9 |
| 20260902132306 | 66 | 235 | 6.0 | 9.0 | 0.00 | 0.00 | 0.00 | 85 | 1015.0 |
| 20260902132154 | 66 | 227 | 5.0 | 9.0 | 0.00 | 0.00 | 0.00 | 85 | 1015.0 |
| 20260902131648 | 66 | 202 | 5.0 | 8.0 | 0.00 | 0.00 | 0.00 | 85 | 1014.9 |
| 20260902131300 | 65 | 196 | 6.0 | 8.0 | 0.00 | 0.00 | 0.00 | 86 | 1015.0 |
| 20260902131156 | 65 | 204 | 5.0 | 8.0 | 0.00 | 0.00 | 0.00 | 86 | 1015.0 |
| 20260902130706 | 65 | 199 | 5.0 | 10.0 | 0.00 | 0.00 | 0.00 | 87 | 1014.9 |
| 20260902130302 | 65 | 183 | 7.0 | 12.0 | 0.00 | 0.00 | 0.00 | 87 | 1014.8 |
| 20260902130215 | 65 | 179 | 7.0 | 12.0 | 0.00 | 0.00 | 0.00 | 87 | 1014.8 |
| 20260902125704 | 64 | 187 | 8.0 | 12.0 | 0.00 | 0.00 | 0.00 | 87 | 1014.8 |
| 20260902125300 | 64 | 199 | 9.0 | 12.0 | 0.00 | 0.00 | 0.00 | 87 | 1014.8 |
| 20260902125152 | 64 | 184 | 9.0 | 12.0 | 0.00 | 0.00 | 0.00 | 87 | 1014.8 |
| 20260902124702 | 64 | 173 | 8.0 | 11.0 | 0.00 | 0.00 | 0.00 | 88 | 1014.7 |
| 20260902124257 | 64 | 160 | 8.0 | 10.0 | 0.00 | 0.00 | 0.00 | 87 | 1014.7 |
| 20260902124150 | 64 | 178 | 8.0 | 10.0 | 0.00 | 0.00 | 0.00 | 87 | 1014.6 |
| 20260902123700 | 64 | 179 | 8.0 | 10.0 | 0.00 | 0.00 | 0.00 | 87 | 1014.7 |
| 20260902123317 | 64 | 194 | 8.0 | 10.0 | 0.00 | 0.00 | 0.00 | 86 | 1014.7 |
| 20260902123148 | 64 | 173 | 8.0 | 10.0 | 0.00 | 0.00 | 0.00 | 86 | 1014.6 |
| 20260902122657 | 64 | 191 | 8.0 | 11.0 | 0.00 | 0.00 | 0.00 | 86 | 1014.6 |
| 20260902122254 | 64 | 175 | 8.0 | 11.0 | 0.00 | 0.00 | 0.00 | 86 | 1014.6 |
| 20260902122151 | 64 | 171 | 8.0 | 11.0 | 0.00 | 0.00 | 0.00 | 86 | 1014.5 |
| 20260902121701 | 64 | 189 | 9.0 | 12.0 | 0.00 | 0.00 | 0.00 | 86 | 1014.6 |
| 20260902121258 | 64 | 179 | 9.0 | 13.0 | 0.00 | 0.00 | 0.00 | 86 | 1014.6 |
| 20260902121211 | 64 | 196 | 9.0 | 13.0 | 0.00 | 0.00 | 0.00 | 87 | 1014.6 |
| 20260902120658 | 64 | 183 | 9.0 | 13.0 | 0.00 | 0.00 | 0.00 | 87 | 1014.7 |
| 20260902120253 | 64 | 182 | 8.0 | 10.0 | 0.00 | 0.00 | 0.00 | 87 | 1014.7 |
| 20260902120206 | 64 | 198 | 8.0 | 11.0 | 0.00 | 0.00 | 0.00 | 87 | 1014.7 |
| 20260902115656 | 64 | 188 | 8.0 | 11.0 | 0.00 | 0.00 | 0.00 | 87 | 1014.7 |
| 20260902115312 | 64 | 177 | 9.0 | 10.0 | 0.00 | 0.00 | 0.00 | 87 | 1014.6 |
| 20260902115203 | 64 | 188 | 9.0 | 11.0 | 0.00 | 0.00 | 0.00 | 88 | 1014.6 |
| 20260902114653 | 64 | 212 | 9.0 | 10.0 | 0.00 | 0.00 | 0.00 | 88 | 1014.7 |
| 20260902114248 | 64 | 206 | 8.0 | 10.0 | 0.00 | 0.00 | 0.00 | 88 | 1014.6 |
| 20260902114222 | 64 | 207 | 9.0 | 10.0 | 0.00 | 0.00 | 0.00 | 88 | 1014.5 |
| 20260902113650 | 64 | 200 | 8.0 | 11.0 | 0.00 | 0.00 | 0.00 | 88 | 1014.5 |
| 20260902113304 | 64 | 195 | 7.0 | 10.0 | 0.00 | 0.00 | 0.00 | 88 | 1014.5 |
| 20260902113158 | 64 | 185 | 8.0 | 10.0 | 0.00 | 0.00 | 0.00 | 88 | 1014.5 |
| 20260902112706 | 64 | 200 | 8.0 | 10.0 | 0.00 | 0.00 | 0.00 | 89 | 1014.5 |
| 20260902112305 | 64 | 215 | 9.0 | 11.0 | 0.00 | 0.00 | 0.00 | 89 | 1014.6 |
| 20260902112155 | 64 | 195 | 8.0 | 11.0 | 0.00 | 0.00 | 0.00 | 89 | 1014.6 |
| 20260902111725 | 63 | 219 | 9.0 | 11.0 | 0.00 | 0.00 | 0.00 | 90 | 1014.6 |
| 20260902111300 | 63 | 190 | 8.0 | 10.0 | 0.00 | 0.00 | 0.00 | 91 | 1014.6 |
| 20260902111213 | 63 | 207 | 8.0 | 11.0 | 0.00 | 0.00 | 0.00 | 91 | 1014.5 |
| 20260902110706 | 62 | 187 | 6.0 | 8.0 | 0.00 | 0.00 | 0.00 | 91 | 1014.6 |
| 20260902110320 | 62 | 208 | 6.0 | 8.0 | 0.00 | 0.00 | 0.00 | 91 | 1014.7 |
| 20260902110156 | 62 | 187 | 6.0 | 8.0 | 0.00 | 0.00 | 0.00 | 91 | 1014.6 |
| 20260902105707 | 62 | 182 | 7.0 | 8.0 | 0.00 | 0.00 | 0.00 | 91 | 1014.8 |
| 20260902105323 | 62 | 178 | 7.0 | 9.0 | 0.00 | 0.00 | 0.00 | 91 | 1014.7 |
| 20260902105155 | 62 | 186 | 7.0 | 9.0 | 0.00 | 0.00 | 0.00 | 91 | 1014.7 |
| 20260902104704 | 63 | 192 | 5.0 | 7.0 | 0.00 | 0.00 | 0.00 | 91 | 1014.8 |
| 20260902104321 | 63 | 180 | 6.0 | 8.0 | 0.00 | 0.00 | 0.00 | 90 | 1014.8 |
| 20260902104153 | 63 | 186 | 6.0 | 8.0 | 0.00 | 0.00 | 0.00 | 90 | 1014.7 |
| 20260902103704 | 63 | 178 | 6.0 | 9.0 | 0.00 | 0.00 | 0.00 | 90 | 1014.7 |
| 20260902103259 | 63 | 175 | 7.0 | 9.0 | 0.00 | 0.00 | 0.00 | 90 | 1014.7 |
| 20260902103151 | 63 | 176 | 7.0 | 9.0 | 0.00 | 0.00 | 0.00 | 90 | 1014.8 |
| 20260902102700 | 62 | 187 | 7.0 | 10.0 | 0.00 | 0.00 | 0.00 | 90 | 1014.8 |
| 20260902102255 | 62 | 185 | 7.0 | 11.0 | 0.00 | 0.00 | 0.00 | 90 | 1014.8 |
| 20260902102208 | 62 | 182 | 7.0 | 10.0 | 0.00 | 0.00 | 0.00 | 90 | 1014.8 |
| 20260902101655 | 63 | 171 | 7.0 | 8.0 | 0.00 | 0.00 | 0.00 | 90 | 1014.8 |
| 20260902101252 | 63 | 176 | 6.0 | 8.0 | 0.00 | 0.00 | 0.00 | 89 | 1014.8 |
| 20260902101210 | 63 | 169 | 7.0 | 8.0 | 0.00 | 0.00 | 0.00 | 89 | 1014.8 |
| 20260902100659 | 63 | 170 | 6.0 | 9.0 | 0.00 | 0.00 | 0.00 | 90 | 1014.8 |
| 20260902100255 | 63 | 184 | 7.0 | 10.0 | 0.00 | 0.00 | 0.00 | 90 | 1014.8 |
| 20260902100149 | 63 | 182 | 7.0 | 10.0 | 0.00 | 0.00 | 0.00 | 89 | 1014.8 |
| 20260902095718 | 63 | 203 | 8.0 | 8.0 | 0.00 | 0.00 | 0.00 | 89 | 1014.7 |
| 20260902095254 | 63 | 171 | 7.0 | 8.0 | 0.00 | 0.00 | 0.00 | 89 | 1014.8 |
| 20260902095206 | 63 | 170 | 7.0 | 9.0 | 0.00 | 0.00 | 0.00 | 89 | 1014.7 |
| 20260902094715 | 63 | 169 | 6.0 | 9.0 | 0.00 | 0.00 | 0.00 | 89 | 1014.8 |
| 20260902094251 | 63 | 175 | 7.0 | 9.0 | 0.00 | 0.00 | 0.00 | 89 | 1014.9 |
| 20260902094205 | 63 | 165 | 7.0 | 9.0 | 0.00 | 0.00 | 0.00 | 89 | 1014.9 |
| 20260902093715 | 63 | 165 | 8.0 | 9.0 | 0.00 | 0.00 | 0.00 | 90 | 1015.0 |
| 20260902093249 | 63 | 194 | 7.0 | 8.0 | 0.00 | 0.00 | 0.00 | 89 | 1014.9 |
| 20260902093222 | 63 | 205 | 7.0 | 8.0 | 0.00 | 0.00 | 0.00 | 89 | 1014.9 |
| 20260902092651 | 63 | 188 | 6.0 | 8.0 | 0.00 | 0.00 | 0.00 | 89 | 1014.9 |
| 20260902092306 | 63 | 166 | 7.0 | 9.0 | 0.00 | 0.00 | 0.00 | 89 | 1014.9 |
| 20260902092200 | 63 | 171 | 7.0 | 8.0 | 0.00 | 0.00 | 0.00 | 89 | 1014.9 |
| 20260902091650 | 63 | 158 | 7.0 | 8.0 | 0.00 | 0.00 | 0.00 | 89 | 1014.9 |
| 20260902091307 | 63 | 180 | 7.0 | 8.0 | 0.00 | 0.00 | 0.00 | 89 | 1014.9 |
| 20260902091200 | 63 | 177 | 7.0 | 9.0 | 0.00 | 0.00 | 0.00 | 89 | 1014.9 |
| 20260902090649 | 63 | 171 | 7.0 | 9.0 | 0.00 | 0.00 | 0.00 | 89 | 1014.9 |
| 20260902090305 | 63 | 184 | 8.0 | 9.0 | 0.00 | 0.00 | 0.00 | 89 | 1014.9 |
| 20260902090158 | 63 | 173 | 7.0 | 9.0 | 0.00 | 0.00 | 0.00 | 89 | 1015.0 |
| 20260902085728 | 63 | 200 | 7.0 | 9.0 | 0.00 | 0.00 | 0.00 | 89 | 1015.0 |
| 20260902085306 | 63 | 194 | 7.0 | 8.0 | 0.00 | 0.00 | 0.00 | 89 | 1015.0 |
| 20260902085157 | 63 | 189 | 7.0 | 9.0 | 0.00 | 0.00 | 0.00 | 89 | 1014.9 |
| 20260902084706 | 63 | 184 | 6.0 | 8.0 | 0.00 | 0.00 | 0.00 | 88 | 1014.9 |
| 20260902084303 | 63 | 174 | 7.0 | 8.0 | 0.00 | 0.00 | 0.00 | 88 | 1014.9 |
| 20260902084156 | 63 | 179 | 7.0 | 8.0 | 0.00 | 0.00 | 0.00 | 88 | 1014.9 |
| 20260902083706 | 63 | 194 | 7.0 | 9.0 | 0.00 | 0.00 | 0.00 | 88 | 1015.0 |
| 20260902083301 | 63 | 161 | 7.0 | 8.0 | 0.00 | 0.00 | 0.00 | 88 | 1014.9 |
| 20260902083214 | 63 | 175 | 7.0 | 9.0 | 0.00 | 0.00 | 0.00 | 88 | 1014.9 |
| 20260902082703 | 63 | 180 | 6.0 | 7.0 | 0.00 | 0.00 | 0.00 | 87 | 1014.9 |
| 20260902082259 | 63 | 171 | 6.0 | 8.0 | 0.00 | 0.00 | 0.00 | 87 | 1015.0 |
| 20260902082213 | 63 | 176 | 6.0 | 8.0 | 0.00 | 0.00 | 0.00 | 87 | 1015.0 |
| 20260902081701 | 63 | 182 | 7.0 | 9.0 | 0.00 | 0.00 | 0.00 | 87 | 1015.0 |
| 20260902081257 | 64 | 183 | 8.0 | 9.0 | 0.00 | 0.00 | 0.00 | 87 | 1015.1 |
| 20260902081154 | 64 | 175 | 8.0 | 8.0 | 0.00 | 0.00 | 0.00 | 87 | 1015.1 |
| 20260902080705 | 64 | 196 | 6.0 | 7.0 | 0.00 | 0.00 | 0.00 | 86 | 1015.2 |
| 20260902080318 | 64 | 202 | 6.0 | 8.0 | 0.00 | 0.00 | 0.00 | 86 | 1015.2 |
| 20260902080154 | 64 | 177 | 6.0 | 8.0 | 0.00 | 0.00 | 0.00 | 85 | 1015.2 |
| 20260902075703 | 65 | 171 | 8.0 | 9.0 | 0.00 | 0.00 | 0.00 | 85 | 1015.2 |
| 20260902075319 | 65 | 167 | 7.0 | 9.0 | 0.00 | 0.00 | 0.00 | 85 | 1015.2 |
| 20260902075151 | 65 | 159 | 7.0 | 8.0 | 0.00 | 0.00 | 0.00 | 85 | 1015.2 |
| 20260902074701 | 65 | 171 | 7.0 | 9.0 | 0.00 | 0.00 | 0.00 | 85 | 1015.2 |
| 20260902074257 | 65 | 154 | 8.0 | 10.0 | 0.00 | 0.00 | 0.00 | 85 | 1015.2 |
| 20260902074151 | 65 | 167 | 8.0 | 10.0 | 0.00 | 0.00 | 0.00 | 85 | 1015.3 |
| 20260902073718 | 64 | 175 | 9.0 | 10.0 | 0.00 | 0.00 | 0.00 | 86 | 1015.3 |
| 20260902073253 | 64 | 190 | 9.0 | 10.0 | 0.00 | 0.00 | 0.00 | 87 | 1015.2 |
| 20260902073205 | 64 | 193 | 9.0 | 10.0 | 0.00 | 0.00 | 0.00 | 87 | 1015.2 |
| 20260902072655 | 64 | 192 | 9.0 | 11.0 | 0.00 | 0.00 | 0.00 | 87 | 1015.1 |
| 20260902072251 | 64 | 198 | 9.0 | 9.0 | 0.00 | 0.00 | 0.00 | 87 | 1015.2 |
| 20260902072204 | 64 | 173 | 9.0 | 10.0 | 0.00 | 0.00 | 0.00 | 88 | 1015.2 |
| 20260902071657 | 64 | 175 | 7.0 | 8.0 | 0.00 | 0.00 | 0.00 | 87 | 1015.3 |
| 20260902071309 | 64 | 184 | 6.0 | 7.0 | 0.00 | 0.00 | 0.00 | 86 | 1015.3 |
| 20260902071221 | 65 | 163 | 6.0 | 7.0 | 0.00 | 0.00 | 0.00 | 86 | 1015.4 |
| 20260902070654 | 65 | 169 | 6.0 | 8.0 | 0.00 | 0.00 | 0.00 | 86 | 1015.4 |
| 20260902070249 | 65 | 181 | 6.0 | 8.0 | 0.00 | 0.00 | 0.00 | 85 | 1015.4 |
| 20260902070201 | 65 | 179 | 6.0 | 7.0 | 0.00 | 0.00 | 0.00 | 85 | 1015.4 |
| 20260902065650 | 66 | 172 | 6.0 | 7.0 | 0.00 | 0.00 | 0.00 | 84 | 1015.4 |
| 20260902065307 | 66 | 183 | 7.0 | 8.0 | 0.00 | 0.00 | 0.00 | 84 | 1015.5 |
| 20260902065200 | 66 | 179 | 6.0 | 8.0 | 0.00 | 0.00 | 0.00 | 84 | 1015.5 |
| 20260902064730 | 66 | 173 | 7.0 | 9.0 | 0.00 | 0.00 | 0.00 | 84 | 1015.6 |
| 20260902064304 | 66 | 145 | 6.0 | 8.0 | 0.00 | 0.00 | 0.00 | 84 | 1015.4 |
| 20260902064158 | 66 | 164 | 7.0 | 8.0 | 0.00 | 0.00 | 0.00 | 84 | 1015.4 |
| 20260902063706 | 66 | 180 | 6.0 | 9.0 | 0.00 | 0.00 | 0.00 | 84 | 1015.4 |
| 20260902063303 | 66 | 164 | 6.0 | 9.0 | 0.00 | 0.00 | 0.00 | 84 | 1015.4 |
| 20260902063154 | 66 | 161 | 6.0 | 9.0 | 0.00 | 0.00 | 0.00 | 84 | 1015.3 |
| 20260902062704 | 66 | 161 | 6.0 | 9.0 | 0.00 | 0.00 | 0.00 | 84 | 1015.3 |
| 20260902062300 | 66 | 180 | 7.0 | 8.0 | 0.00 | 0.00 | 0.00 | 84 | 1015.2 |
| 20260902062153 | 66 | 176 | 7.0 | 9.0 | 0.00 | 0.00 | 0.00 | 84 | 1015.2 |
| 20260902061723 | 66 | 187 | 6.0 | 8.0 | 0.00 | 0.00 | 0.00 | 84 | 1015.1 |
| 20260902061258 | 66 | 187 | 7.0 | 8.0 | 0.00 | 0.00 | 0.00 | 84 | 1015.1 |
| 20260902061155 | 66 | 174 | 7.0 | 8.0 | 0.00 | 0.00 | 0.00 | 84 | 1015.0 |
| 20260902060707 | 66 | 188 | 6.0 | 8.0 | 0.00 | 0.00 | 0.00 | 83 | 1015.1 |
| 20260902060302 | 66 | 194 | 5.0 | 6.0 | 0.00 | 0.00 | 0.00 | 83 | 1015.1 |
| 20260902060154 | 66 | 203 | 5.0 | 6.0 | 0.00 | 0.00 | 0.00 | 83 | 1015.0 |
| 20260902055704 | 66 | 192 | 5.0 | 6.0 | 0.00 | 0.00 | 0.00 | 83 | 1015.0 |
| 20260902055301 | 67 | 205 | 4.0 | 5.0 | 0.00 | 0.00 | 0.00 | 83 | 1015.0 |
| 20260902055153 | 67 | 196 | 4.0 | 5.0 | 0.00 | 0.00 | 0.00 | 83 | 1015.0 |
| 20260902054701 | 67 | 205 | 4.0 | 5.0 | 0.00 | 0.00 | 0.00 | 83 | 1015.0 |
| 20260902054254 | 67 | 214 | 4.0 | 5.0 | 0.00 | 0.00 | 0.00 | 82 | 1015.0 |
| 20260902054158 | 67 | 212 | 4.0 | 5.0 | 0.00 | 0.00 | 0.00 | 82 | 1015.0 |
| 20260902053705 | 67 | 222 | 4.0 | 5.0 | 0.00 | 0.00 | 0.00 | 81 | 1015.0 |
| 20260902053302 | 67 | 220 | 3.0 | 5.0 | 0.00 | 0.00 | 0.00 | 81 | 1015.1 |
| 20260902053155 | 67 | 236 | 3.0 | 5.0 | 0.00 | 0.00 | 0.00 | 81 | 1015.0 |
| 20260902052705 | 67 | 238 | 4.0 | 5.0 | 0.00 | 0.00 | 0.00 | 81 | 1015.0 |
| 20260902052301 | 67 | 229 | 4.0 | 6.0 | 0.00 | 0.00 | 0.00 | 81 | 1015.0 |
| 20260902052157 | 67 | 227 | 4.0 | 6.0 | 0.00 | 0.00 | 0.00 | 81 | 1015.0 |
| 20260902051703 | 67 | 226 | 4.0 | 6.0 | 0.00 | 0.00 | 0.00 | 81 | 1015.0 |
| 20260902051309 | 67 | 228 | 5.0 | 6.0 | 0.00 | 0.00 | 0.00 | 81 | 1015.1 |
| 20260902051217 | 67 | 236 | 5.0 | 7.0 | 0.00 | 0.00 | 0.00 | 82 | 1015.1 |
| 20260902050652 | 67 | 238 | 4.0 | 5.0 | 0.00 | 0.00 | 0.00 | 82 | 1015.2 |
| 20260902050304 | 67 | 242 | 4.0 | 5.0 | 0.00 | 0.00 | 0.00 | 82 | 1015.3 |
| 20260902050158 | 67 | 234 | 4.0 | 5.0 | 0.00 | 0.00 | 0.00 | 82 | 1015.2 |
| 20260902045728 | 67 | 244 | 4.0 | 5.0 | 0.00 | 0.00 | 0.00 | 83 | 1015.2 |
| 20260902045306 | 67 | 235 | 4.0 | 5.0 | 0.00 | 0.00 | 0.00 | 83 | 1015.2 |
| 20260902044705 | 67 | 251 | 4.0 | 7.0 | 0.00 | 0.00 | 0.00 | 82 | 1015.3 |
| 20260902044323 | 67 | 243 | 5.0 | 7.0 | 0.00 | 0.00 | 0.00 | 82 | 1015.3 |
| 20260902044151 | 67 | 244 | 5.0 | 7.0 | 0.00 | 0.00 | 0.00 | 82 | 1015.3 |
| 20260902043721 | 67 | 234 | 5.0 | 8.0 | 0.00 | 0.00 | 0.00 | 82 | 1015.4 |
| 20260902043254 | 67 | 234 | 5.0 | 7.0 | 0.00 | 0.00 | 0.00 | 82 | 1015.5 |
| 20260902043207 | 67 | 238 | 5.0 | 7.0 | 0.00 | 0.00 | 0.00 | 82 | 1015.5 |
| 20260902042657 | 67 | 235 | 5.0 | 6.0 | 0.00 | 0.00 | 0.00 | 82 | 1015.6 |
| 20260902042255 | 67 | 229 | 5.0 | 6.0 | 0.00 | 0.00 | 0.00 | 81 | 1015.7 |
| 20260902042207 | 67 | 221 | 5.0 | 7.0 | 0.00 | 0.00 | 0.00 | 81 | 1015.8 |
| 20260902041657 | 68 | 230 | 5.0 | 9.0 | 0.00 | 0.00 | 0.00 | 80 | 1015.8 |
| 20260902041255 | 68 | 229 | 6.0 | 9.0 | 0.00 | 0.00 | 0.00 | 80 | 1015.8 |
| 20260902041206 | 68 | 221 | 5.0 | 11.0 | 0.00 | 0.00 | 0.00 | 80 | 1015.8 |
| 20260902040715 | 68 | 232 | 8.0 | 11.0 | 0.00 | 0.00 | 0.00 | 80 | 1015.8 |
| 20260902040250 | 68 | 244 | 10.0 | 11.0 | 0.00 | 0.00 | 0.00 | 80 | 1016.0 |
| 20260902040203 | 68 | 242 | 10.0 | 12.0 | 0.00 | 0.00 | 0.00 | 80 | 1016.0 |
| 20260902035652 | 68 | 236 | 9.0 | 14.0 | 0.00 | 0.00 | 0.00 | 80 | 1015.9 |
| 20260902035250 | 68 | 236 | 11.0 | 14.0 | 0.00 | 0.00 | 0.00 | 80 | 1016.0 |
| 20260902035206 | 68 | 238 | 9.0 | 14.0 | 0.00 | 0.00 | 0.00 | 80 | 1016.0 |
| 20260902034656 | 68 | 240 | 5.0 | 8.0 | 0.00 | 0.00 | 0.00 | 79 | 1015.5 |
| 20260902034253 | 68 | 252 | 5.0 | 8.0 | 0.00 | 0.00 | 0.00 | 79 | 1015.5 |
| 20260902034225 | 68 | 234 | 5.0 | 8.0 | 0.00 | 0.00 | 0.00 | 79 | 1015.5 |
| 20260902033655 | 68 | 240 | 5.0 | 8.0 | 0.00 | 0.00 | 0.00 | 78 | 1015.6 |
| 20260902033253 | 69 | 234 | 7.0 | 8.0 | 0.00 | 0.00 | 0.00 | 78 | 1015.6 |
| 20260902033206 | 69 | 242 | 7.0 | 8.0 | 0.00 | 0.00 | 0.00 | 78 | 1015.6 |
| 20260902032716 | 69 | 231 | 6.0 | 8.0 | 0.00 | 0.00 | 0.00 | 77 | 1015.7 |
| 20260902032251 | 69 | 236 | 6.0 | 9.0 | 0.00 | 0.00 | 0.00 | 77 | 1015.6 |
| 20260902032202 | 69 | 236 | 6.0 | 9.0 | 0.00 | 0.00 | 0.00 | 77 | 1015.5 |
| 20260902031653 | 70 | 238 | 6.0 | 9.0 | 0.00 | 0.00 | 0.00 | 76 | 1015.6 |
| 20260902031251 | 70 | 243 | 7.0 | 8.0 | 0.00 | 0.00 | 0.00 | 75 | 1015.6 |
| 20260902031224 | 70 | 234 | 7.0 | 9.0 | 0.00 | 0.00 | 0.00 | 75 | 1015.6 |
| 20260902030652 | 71 | 229 | 6.0 | 9.0 | 0.00 | 0.00 | 0.00 | 74 | 1015.4 |
| 20260902030308 | 71 | 229 | 7.0 | 9.0 | 0.00 | 0.00 | 0.00 | 73 | 1015.4 |
| 20260902030159 | 71 | 246 | 6.0 | 9.0 | 0.00 | 0.00 | 0.00 | 72 | 1015.4 |
| 20260902025652 | 71 | 253 | 5.0 | 7.0 | 0.00 | 0.00 | 0.00 | 71 | 1015.4 |
| 20260902025306 | 72 | 246 | 4.0 | 7.0 | 0.00 | 0.00 | 0.00 | 70 | 1015.3 |
| 20260902025159 | 72 | 252 | 5.0 | 7.0 | 0.00 | 0.00 | 0.00 | 69 | 1015.3 |
| 20260902024649 | 72 | 240 | 5.0 | 6.0 | 0.00 | 0.00 | 0.00 | 69 | 1015.3 |
| 20260902024307 | 72 | 232 | 5.0 | 7.0 | 0.00 | 0.00 | 0.00 | 68 | 1015.3 |
| 20260902024158 | 73 | 234 | 5.0 | 7.0 | 0.00 | 0.00 | 0.00 | 68 | 1015.3 |
| 20260902023708 | 73 | 202 | 5.0 | 8.0 | 0.00 | 0.00 | 0.00 | 66 | 1015.1 |
| 20260902023305 | 73 | 198 | 6.0 | 8.0 | 0.00 | 0.00 | 0.00 | 66 | 1015.1 |
| 20260902023159 | 73 | 216 | 6.0 | 8.0 | 0.00 | 0.00 | 0.00 | 66 | 1015.1 |
| 20260902022729 | 74 | 219 | 5.0 | 8.0 | 0.00 | 0.00 | 0.00 | 65 | 1015.0 |
| 20260902022306 | 74 | 205 | 6.0 | 9.0 | 0.00 | 0.00 | 0.00 | 65 | 1015.0 |
| 20260902022156 | 74 | 221 | 6.0 | 10.0 | 0.00 | 0.00 | 0.00 | 64 | 1014.9 |
| 20260902021706 | 75 | 209 | 6.0 | 12.0 | 0.00 | 0.00 | 0.00 | 63 | 1014.8 |
| 20260902021303 | 75 | 207 | 8.0 | 12.0 | 0.00 | 0.00 | 0.00 | 63 | 1014.8 |
| 20260902021155 | 75 | 184 | 8.0 | 12.0 | 0.00 | 0.00 | 0.00 | 63 | 1014.8 |
| 20260902020649 | 75 | 182 | 8.0 | 12.0 | 0.00 | 0.00 | 0.00 | 62 | 1014.7 |
| 20260902020301 | 76 | 178 | 9.0 | 13.0 | 0.00 | 0.00 | 0.00 | 62 | 1014.6 |
| 20260902020214 | 76 | 165 | 8.0 | 12.0 | 0.00 | 0.00 | 0.00 | 62 | 1014.6 |
| 20260902015722 | 76 | 187 | 8.0 | 15.0 | 0.00 | 0.00 | 0.00 | 61 | 1014.5 |
| 20260902015252 | 76 | 184 | 10.0 | 16.0 | 0.00 | 0.00 | 0.00 | 61 | 1014.4 |
| 20260902015208 | 76 | 188 | 10.0 | 16.0 | 0.00 | 0.00 | 0.00 | 60 | 1014.4 |
| 20260902014718 | 77 | 192 | 9.0 | 16.0 | 0.00 | 0.00 | 0.00 | 60 | 1014.3 |
| 20260902014254 | 77 | 192 | 10.0 | 18.0 | 0.00 | 0.00 | 0.00 | 59 | 1014.2 |
| 20260902014207 | 77 | 187 | 10.0 | 18.0 | 0.00 | 0.00 | 0.00 | 59 | 1014.2 |
| 20260902013713 | 78 | 196 | 11.0 | 17.0 | 0.00 | 0.00 | 0.00 | 58 | 1014.2 |
| 20260902013327 | 78 | 190 | 10.0 | 17.0 | 0.00 | 0.00 | 0.00 | 57 | 1014.2 |
| 20260902013156 | 78 | 178 | 10.0 | 17.0 | 0.00 | 0.00 | 0.00 | 57 | 1014.2 |
| 20260902012705 | 79 | 205 | 10.0 | 15.0 | 0.00 | 0.00 | 0.00 | 55 | 1014.2 |
| 20260902012308 | 80 | 167 | 10.0 | 23.0 | 0.00 | 0.00 | 0.00 | 55 | 1014.2 |
| 20260902012154 | 80 | 201 | 11.0 | 23.0 | 0.00 | 0.00 | 0.00 | 54 | 1014.3 |
| 20260902011724 | 80 | 201 | 13.0 | 23.0 | 0.00 | 0.00 | 0.00 | 53 | 1014.3 |
| 20260902011300 | 81 | 195 | 16.0 | 23.0 | 0.00 | 0.00 | 0.00 | 52 | 1014.3 |
| 20260902011150 | 81 | 202 | 16.0 | 22.0 | 0.00 | 0.00 | 0.00 | 52 | 1014.4 |
| 20260902010659 | 82 | 200 | 15.0 | 24.0 | 0.00 | 0.00 | 0.00 | 51 | 1014.4 |
| 20260902010316 | 82 | 202 | 14.0 | 19.0 | 0.00 | 0.00 | 0.00 | 50 | 1014.4 |
| 20260902010228 | 82 | 202 | 14.0 | 19.0 | 0.00 | 0.00 | 0.00 | 50 | 1014.4 |
| 20260902005715 | 83 | 218 | 10.0 | 20.0 | 0.00 | 0.00 | 0.00 | 50 | 1014.4 |
| 20260902005249 | 83 | 204 | 11.0 | 17.0 | 0.00 | 0.00 | 0.00 | 49 | 1014.5 |
| 20260902005202 | 83 | 227 | 11.0 | 21.0 | 0.00 | 0.00 | 0.00 | 49 | 1014.4 |
| 20260902004652 | 83 | 186 | 11.0 | 21.0 | 0.00 | 0.00 | 0.00 | 48 | 1014.3 |
| 20260902004249 | 84 | 202 | 14.0 | 19.0 | 0.00 | 0.00 | 0.00 | 48 | 1014.3 |
| 20260902004201 | 84 | 200 | 15.0 | 21.0 | 0.00 | 0.00 | 0.00 | 48 | 1014.3 |
| 20260902003655 | 84 | 196 | 13.0 | 22.0 | 0.00 | 0.00 | 0.00 | 48 | 1014.3 |
| 20260902003327 | 84 | 215 | 12.0 | 22.0 | 0.00 | 0.00 | 0.00 | 48 | 1014.4 |
| 20260902003203 | 84 | 201 | 12.0 | 22.0 | 0.00 | 0.00 | 0.00 | 48 | 1014.4 |
| 20260902002652 | 84 | 184 | 13.0 | 24.0 | 0.00 | 0.00 | 0.00 | 49 | 1014.5 |
| 20260902002324 | 84 | 177 | 14.0 | 25.0 | 0.00 | 0.00 | 0.00 | 48 | 1014.4 |
| 20260902002158 | 84 | 153 | 15.0 | 25.0 | 0.00 | 0.00 | 0.00 | 47 | 1014.4 |
| 20260902001708 | 84 | 175 | 17.0 | 25.0 | 0.00 | 0.00 | 0.00 | 47 | 1014.3 |
| 20260902001305 | 84 | 172 | 14.0 | 23.0 | 0.00 | 0.00 | 0.00 | 47 | 1014.4 |
| 20260902001218 | 84 | 186 | 16.0 | 23.0 | 0.00 | 0.00 | 0.00 | 47 | 1014.4 |
| 20260902000727 | 85 | 214 | 16.0 | 26.0 | 0.00 | 0.00 | 0.00 | 47 | 1014.4 |
| 20260902000301 | 86 | 215 | 17.0 | 26.0 | 0.00 | 0.00 | 0.00 | 46 | 1014.4 |
| 20260902000154 | 86 | 178 | 19.0 | 26.0 | 0.00 | 0.00 | 0.00 | 45 | 1014.5 |
| 20260901235703 | 88 | 227 | 16.0 | 28.0 | 0.00 | 0.00 | 0.00 | 44 | 1014.4 |
| 20260901235320 | 89 | 169 | 14.0 | 29.0 | 0.00 | 0.00 | 0.00 | 44 | 1014.1 |
| 20260901235152 | 89 | 173 | 9.0 | 14.0 | 0.00 | 0.00 | 0.00 | 43 | 1014.1 |
| 20260901234722 | 90 | 176 | 8.0 | 11.0 | 0.00 | 0.00 | 0.00 | 43 | 1014.0 |
| 20260901234255 | 90 | 173 | 9.0 | 12.0 | 0.00 | 0.00 | 0.00 | 42 | 1014.0 |
| 20260901234228 | 90 | 178 | 9.0 | 12.0 | 0.00 | 0.00 | 0.00 | 42 | 1014.0 |
| 20260901233655 | 90 | 150 | 8.0 | 10.0 | 0.00 | 0.00 | 0.00 | 42 | 1014.0 |
| 20260901233252 | 91 | 141 | 8.0 | 11.0 | 0.00 | 0.00 | 0.00 | 42 | 1014.0 |
| 20260901233202 | 91 | 180 | 8.0 | 12.0 | 0.00 | 0.00 | 0.00 | 42 | 1014.1 |